Total_Precipitation_Accumulation
1.80 1.86 1.82 1.74 1.66 2.02 2.42 2.57 2.34 2.58 2.61 2.24 1.93 1.78 1.68 1.66 1.82 2.00 1.95 2.16 2.11 2.07 2.27 2.35 2.18 1.93 1.74 1.44 1.23 1.07 0.93 0.88 0.81 0.64 0.51 0.44 0.41 0.39 0.39 0.40 0.40 0.36 0.33
2.28 2.33 2.18 2.05 1.85 1.90 2.17 2.37 2.38 2.59 2.47 2.35 1.78 1.69 1.63 1.71 1.84 1.89 1.92 2.40 2.37 2.16 2.15 2.28 2.34 2.21 2.05 1.91 1.63 1.36 1.14 1.04 0.94 0.73 0.58 0.51 0.47 0.43 0.41 0.43 0.47 0.42 0.31
2.72 2.61 2.35 2.05 1.95 2.00 2.09 2.08 2.11 2.21 2.07 2.00 1.78 1.85 1.79 1.65 1.52 1.55 1.71 1.95 1.94 1.80 1.77 1.86 2.05 2.22 2.37 2.37 2.18 1.99 1.58 1.24 1.05 0.83 0.65 0.52 0.45 0.40 0.40 0.41 0.46 0.45 0.34
2.58 2.51 2.20 1.86 1.91 1.99 1.98 1.95 1.84 1.91 1.89 1.94 1.92 1.79 1.84 1.69 1.38 1.34 1.43 1.42 1.51 1.42 1.55 1.63 1.72 1.93 2.37 2.70 2.80 2.69 2.29 1.67 1.24 1.00 0.81 0.64 0.51 0.42 0.37 0.39 0.44 0.43 0.34
2.30 2.39 2.10 1.91 1.88 1.83 1.72 1.63 1.82 1.96 1.90 1.91 1.83 1.69 1.49 1.33 1.11 0.98 0.98 0.93 1.07 1.24 1.40 1.48 1.51 1.62 2.10 2.72 3.20 3.36 3.10 2.40 1.76 1.34 1.12 0.95 0.77 0.59 0.45 0.42 0.41 0.37 0.31
1.91 1.98 1.78 1.68 1.76 1.76 1.62 1.66 1.81 1.88 1.67 1.73 1.63 1.39 1.22 1.00 0.93 0.82 0.71 0.70 0.69 0.71 0.92 1.25 1.53 1.33 1.62 2.14 2.69 3.13 3.41 3.09 2.45 1.97 1.59 1.30 1.10 0.86 0.61 0.51 0.45 0.40 0.34
1.40 1.57 1.40 1.48 1.54 1.49 1.40 1.38 1.45 1.48 1.30 1.53 1.63 1.21 0.90 0.78 0.71 0.62 0.62 0.62 0.56 0.64 0.83 1.09 1.30 1.37 1.31 1.39 1.70 2.15 2.88 3.24 2.98 2.52 2.11 1.74 1.46 1.19 0.85 0.66 0.58 0.49 0.43
1.27 1.19 1.21 1.18 1.24 1.28 1.17 1.12 1.23 1.22 1.04 1.29 1.39 1.27 0.90 0.74 0.63 0.48 0.50 0.50 0.54 0.68 0.72 0.82 1.07 1.23 1.17 1.44 1.29 1.32 1.95 2.58 2.94 2.87 2.51 2.06 1.72 1.43 1.14 0.94 0.75 0.60 0.51
1.38 1.30 1.20 1.09 1.06 1.05 1.06 1.03 1.10 1.11 0.99 1.02 1.13 1.30 1.05 0.76 0.62 0.43 0.42 0.48 0.63 0.76 0.76 0.84 0.91 1.07 1.08 1.27 1.36 1.35 1.37 1.70 2.32 2.95 2.96 2.48 1.91 1.45 1.18 1.12 1.04 0.82 0.64
1.57 1.40 1.25 1.06 0.91 0.87 0.93 0.82 0.89 1.01 1.03 0.92 0.91 0.98 1.01 1.06 0.98 0.65 0.41 0.39 0.58 0.69 0.71 0.73 0.81 0.98 1.10 1.26 1.39 1.55 1.38 1.32 1.69 2.42 2.86 2.79 2.34 1.80 1.43 1.34 1.49 1.39 0.99
1.35 1.14 1.03 0.94 0.84 0.77 0.75 0.78 0.89 0.96 0.98 0.91 0.90 0.88 0.93 1.08 1.10 0.98 0.68 0.58 0.61 0.57 0.55 0.62 0.75 0.89 1.03 1.26 1.55 1.68 1.79 1.57 1.48 1.66 2.03 2.28 2.36 2.13 1.83 1.77 2.12 2.31 1.94
0.95 0.87 0.80 0.79 0.76 0.74 0.74 0.73 0.78 0.86 0.94 0.99 1.00 1.03 1.08 1.09 1.15 1.24 1.04 0.87 0.80 0.68 0.64 0.74 0.86 1.04 1.16 1.30 1.37 1.52 1.57 1.62 1.58 1.53 1.58 1.70 1.88 2.00 2.03 2.12 2.42 2.73 2.80
0.66 0.69 0.70 0.73 0.71 0.75 0.79 0.85 0.85 0.84 0.92 1.03 1.05 1.13 1.20 1.19 1.25 1.35 1.29 1.10 1.01 0.98 0.99 0.98 1.00 1.16 1.17 1.29 1.43 1.32 1.12 1.20 1.22 1.23 1.23 1.24 1.34 1.55 1.69 1.79 2.09 2.43 2.71
0.65 0.66 0.72 0.78 0.75 0.73 0.73 0.83 0.86 0.92 0.99 1.03 1.01 1.17 1.26 1.19 1.31 1.44 1.47 1.44 1.31 1.31 1.37 1.38 1.17 1.09 1.11 1.20 1.31 1.20 1.11 1.01 0.82 0.74 0.73 0.77 0.84 0.99 1.15 1.31 1.50 1.69 1.94
0.68 0.73 0.79 0.86 0.85 0.84 0.85 0.89 0.88 0.97 1.15 1.22 1.20 1.24 1.29 1.27 1.31 1.44 1.56 1.60 1.59 1.53 1.53 1.52 1.26 1.11 1.02 1.04 1.13 1.18 1.30 1.09 0.74 0.58 0.52 0.52 0.57 0.65 0.73 0.87 1.01 1.17 1.31
0.73 0.75 0.79 0.81 0.85 0.85 0.86 0.90 0.94 1.03 1.20 1.27 1.34 1.42 1.41 1.34 1.39 1.45 1.50 1.62 1.73 1.75 1.64 1.49 1.31 1.19 1.12 0.97 0.99 0.97 1.04 0.91 0.67 0.56 0.50 0.47 0.46 0.48 0.54 0.62 0.70 0.83 0.96
0.75 0.78 0.73 0.66 0.62 0.66 0.79 0.93 0.97 1.05 1.14 1.19 1.25 1.25 1.24 1.26 1.31 1.26 1.34 1.47 1.64 1.78 1.65 1.53 1.45 1.41 1.34 1.25 1.11 0.91 0.79 0.70 0.62 0.59 0.51 0.46 0.46 0.46 0.46 0.48 0.53 0.61 0.72
0.71 0.75 0.70 0.63 0.59 0.65 0.79 0.93 1.06 1.26 1.39 1.35 1.27 1.19 1.11 1.17 1.27 1.27 1.35 1.37 1.44 1.66 1.65 1.62 1.61 1.62 1.53 1.36 1.26 1.12 0.91 0.79 0.75 0.69 0.58 0.50 0.44 0.44 0.43 0.44 0.49 0.54 0.63
0.71 0.71 0.71 0.73 0.82 0.90 1.01 1.12 1.18 1.31 1.36 1.27 1.23 1.16 1.08 1.09 1.13 1.22 1.32 1.35 1.34 1.41 1.56 1.59 1.61 1.69 1.66 1.46 1.30 1.17 1.06 1.08 0.98 0.81 0.63 0.53 0.47 0.43 0.42 0.41 0.49 0.58 0.71
0.58 0.66 0.79 0.95 1.06 1.12 1.14 1.19 1.17 1.14 1.13 1.05 0.99 0.94 0.98 1.09 1.15 1.15 1.13 1.16 1.19 1.29 1.38 1.45 1.52 1.65 1.71 1.63 1.42 1.30 1.28 1.23 1.13 0.86 0.73 0.60 0.51 0.44 0.40 0.36 0.39 0.53 0.68
0.58 0.71 0.86 0.95 0.95 0.96 1.01 1.08 1.05 1.00 0.94 0.88 0.81 0.67 0.67 0.85 0.98 1.01 0.93 0.97 1.03 1.11 1.16 1.26 1.37 1.52 1.62 1.72 1.54 1.34 1.28 1.34 1.29 1.15 0.99 0.80 0.66 0.58 0.55 0.51 0.44 0.44 0.50
0.67 0.80 0.87 0.87 0.81 0.64 0.59 0.60 0.64 0.70 0.75 0.76 0.68 0.63 0.61 0.61 0.62 0.64 0.67 0.72 0.80 0.89 1.03 1.20 1.32 1.40 1.44 1.55 1.64 1.59 1.52 1.48 1.46 1.41 1.42 1.32 1.05 0.95 0.91 0.85 0.68 0.46 0.37
0.75 0.81 0.80 0.80 0.77 0.73 0.57 0.44 0.41 0.48 0.56 0.58 0.60 0.64 0.52 0.44 0.48 0.48 0.49 0.47 0.48 0.53 0.66 0.90 1.13 1.22 1.35 1.39 1.62 1.67 1.69 1.78 1.77 1.74 1.73 1.76 1.47 1.20 1.03 0.95 0.85 0.60 0.45
0.89 0.89 0.84 0.83 0.87 0.83 0.69 0.55 0.45 0.40 0.48 0.51 0.55 0.60 0.61 0.59 0.58 0.60 0.58 0.55 0.49 0.46 0.47 0.54 0.76 1.01 1.22 1.46 1.55 1.61 1.69 1.76 1.76 1.64 1.61 1.71 1.61 1.48 1.24 0.95 0.84 0.75 0.62
1.09 1.06 1.05 1.04 1.04 1.02 0.85 0.60 0.50 0.51 0.61 0.61 0.62 0.63 0.65 0.66 0.64 0.53 0.54 0.55 0.56 0.56 0.45 0.45 0.54 0.75 0.94 1.05 1.28 1.49 1.61 1.55 1.48 1.31 1.18 1.28 1.37 1.42 1.45 1.28 0.98 0.89 0.76
1.29 1.20 1.13 1.11 1.10 1.14 1.04 0.69 0.53 0.60 0.78 0.82 0.84 0.77 0.64 0.58 0.55 0.46 0.49 0.61 0.59 0.58 0.63 0.58 0.50 0.54 0.67 0.80 0.87 0.99 1.22 1.35 1.24 1.18 1.01 0.94 0.93 1.05 1.17 1.10 0.94 0.90 0.90